Weather History for LEJR - August, 2014

Change the Weather History Date:

Friday, August 29, 2014

  Actual Average Record
Temperature  
Mean Temperature 80 °F -  
Max Temperature 98 °F 82 °F 104 °F (2006)
Min Temperature 61 °F 60 °F 57 °F (2002)
Cooling Degree Days 14    
Growing Degree Days 30 (Base 50)    
Moisture  
Dew Point 55 °F    
Average Humidity 44    
Maximum Humidity 77    
Minimum Humidity 15    
Precipitation  
Precipitation 0.00 in 0.03 in - ()
Sea Level Pressure  
Sea Level Pressure 29.96 in    
Wind  
Wind Speed 3 mph ()    
Max Wind Speed 13 mph    
Max Gust Speed 17 mph    
Visibility 6.3 miles    
Events      
Averages and records for this station are not official NWS values.
T = Trace of Precipitation, MM = Missing Value Source: Averaged Metar Reports

Daily Weather History Graph

Daily Weather History Graph

Search for Another Location

Airport or City:

Trip Planner

Search our weather history database for the weather conditions in past years. The results will help you decide how hot, cold, wet, or windy it might be!

Date:

Astronomy

Aug. 29, 2014 Rise Set
Actual Time 7:52 AM CEST 8:57 PM CEST
Civil Twilight 7:26 AM CEST 9:23 PM CEST
Nautical Twilight 6:54 AM CEST 9:55 PM CEST
Astronomical Twilight 6:21 AM CEST 10:27 PM CEST
Moon 11:22 AM CEST (8/29) 10:53 PM CEST (8/29)
Length of Visible Light 13h 57m
Length of Day
13h 04m
Waxing Crescent, 13% of the Moon is Illuminated
Aug 29
Waxing Crescent
Sep 2
First Quarter
Sep 9
Full
Sep 16
Last Quarter
Sep 24
New

Hourly Weather History & Observations

Time (CEST) Temp. Heat Index Dew Point Humidity Pressure Visibility Wind Dir Wind Speed Gust Speed Precip Events Conditions
12:00 AM 71 °F - 59 °F 57% 30.01 in - Calm Calm - -  
1:00 AM 70 °F - 57 °F 55% 30.01 in - Calm Calm - -  
2:00 AM 68 °F - 58 °F 61% 30.00 in 6 mi NNE 1.2 mph - -  
3:00 AM 66 °F - 57 °F 65% 29.99 in - NE 2.3 mph - -  
3:30 AM 68.0 °F - 55.4 °F 64% 29.98 in - Calm Calm - N/A   Clear
4:00 AM 67 °F - 55 °F 57% 29.99 in - NNE 1.2 mph - -  
4:00 AM 68.0 °F - 55.4 °F 64% 29.98 in - Variable 1.2 mph - N/A   Clear
4:30 AM 66.2 °F - 55.4 °F 68% 29.98 in - Calm Calm - N/A   Clear
5:00 AM 64 °F - 55 °F 65% 29.99 in 9 mi Calm Calm - -  
5:00 AM 64.4 °F - 55.4 °F 73% 29.98 in - Calm Calm - N/A   Clear
5:30 AM 64.4 °F - 55.4 °F 73% 29.98 in - Calm Calm - N/A   Clear
6:00 AM 63 °F - 56 °F 71% 29.99 in - Calm Calm - -  
6:00 AM 64.4 °F - 55.4 °F 73% 29.98 in - Calm Calm - N/A   Clear
6:30 AM 64.4 °F - 55.4 °F 73% 29.98 in - Variable 1.2 mph - N/A   Clear
7:00 AM 62 °F - 56 °F 73% 29.99 in - Calm Calm - -  
7:00 AM 62.6 °F - 55.4 °F 77% 29.98 in 6.2 mi Variable 1.2 mph - N/A   Partly Cloudy
7:30 AM 62.6 °F - 53.6 °F 72% 29.98 in 6.2 mi Calm Calm - N/A   Partly Cloudy
8:00 AM 62 °F - 55 °F 70% 29.99 in 31 mi Calm Calm - -   Scattered Clouds
8:00 AM 62.6 °F - 55.4 °F 77% 29.98 in 6.2 mi Calm Calm - N/A   Partly Cloudy
8:30 AM 64.4 °F - 55.4 °F 73% 29.98 in 6.2 mi Variable 2.3 mph - N/A   Partly Cloudy
9:00 AM 67 °F - 56 °F 59% 29.99 in - Calm Calm - -  
9:00 AM 68.0 °F - 55.4 °F 64% 29.98 in 6.2 mi Calm Calm - N/A   Partly Cloudy
9:30 AM 71.6 °F - 57.2 °F 60% 29.98 in 6.2 mi Calm Calm - N/A   Partly Cloudy
10:00 AM 76 °F - 59 °F 45% 29.99 in - Calm Calm - -  
10:00 AM 75.2 °F - 57.2 °F 53% 29.98 in 6.2 mi Calm Calm - N/A   Partly Cloudy
10:30 AM 82.4 °F 81.7 °F 55.4 °F 39% 29.98 in 6.2 mi NW 6.9 mph - N/A   Partly Cloudy
11:00 AM 84 °F - 56 °F 28% 29.99 in 25 mi NNW 9.2 mph - -   Scattered Clouds
11:00 AM 84.2 °F - 51.8 °F 33% 29.98 in 6.2 mi NNW 6.9 mph - N/A   Partly Cloudy
11:30 AM 86.0 °F 84.2 °F 53.6 °F 33% 29.98 in 6.2 mi North 9.2 mph - N/A   Partly Cloudy
12:00 PM 87 °F - 56 °F 25% 29.99 in - North 10.4 mph - -  
12:00 PM 86.0 °F 84.2 °F 53.6 °F 33% 29.98 in 6.2 mi North 10.4 mph - N/A   Partly Cloudy
12:30 PM 91.4 °F 89.1 °F 53.6 °F 28% 29.98 in 6.2 mi North 6.9 mph - N/A   Partly Cloudy
1:00 PM 94 °F - 58 °F 21% 29.98 in - NNW 4.6 mph - -  
1:00 PM 93.2 °F 90.8 °F 53.6 °F 26% 29.98 in 6.2 mi North 3.5 mph - N/A   Partly Cloudy
1:30 PM 93.2 °F 90.8 °F 53.6 °F 26% 29.98 in 6.2 mi Variable 5.8 mph - N/A   Partly Cloudy
2:00 PM 96 °F - 56 °F 18% 29.97 in 37 mi NNW 4.6 mph - -   Scattered Clouds
2:00 PM 95.0 °F - 51.8 °F 23% 29.98 in 6.2 mi Variable 4.6 mph - N/A   Partly Cloudy
3:00 PM 97 °F - 57 °F 18% 29.96 in - NNW 8.1 mph - -  
3:00 PM 96.8 °F - 51.8 °F 22% 29.95 in 6.2 mi Variable 4.6 mph - N/A   Partly Cloudy
3:30 PM 96.8 °F - 51.8 °F 22% 29.95 in 6.2 mi NNW 5.8 mph - N/A   Partly Cloudy
4:00 PM 97 °F - 54 °F 15% 29.95 in - WNW 4.6 mph - -  
4:00 PM 95.0 °F - 48.2 °F 20% 29.95 in 6.2 mi NW 4.6 mph 17.3 mph N/A   Partly Cloudy
4:30 PM 96.8 °F 94.4 °F 53.6 °F 23% 29.95 in 6.2 mi West 10.4 mph - N/A   Partly Cloudy
5:00 PM 97 °F - 57 °F 18% 29.93 in 37 mi WNW 11.5 mph - -   Scattered Clouds
5:00 PM 96.8 °F 94.4 °F 53.6 °F 23% 29.92 in 6.2 mi WNW 10.4 mph - N/A   Partly Cloudy
5:30 PM 95.0 °F 92.7 °F 53.6 °F 25% 29.92 in 6.2 mi WNW 12.7 mph - N/A   Partly Cloudy
6:00 PM 95 °F - 56 °F 18% 29.93 in - West 10.4 mph - -  
6:00 PM 95.0 °F - 51.8 °F 23% 29.92 in 6.2 mi West 9.2 mph - N/A   Partly Cloudy
6:30 PM 93.2 °F - 50.0 °F 23% 29.92 in 6.2 mi West 10.4 mph - N/A   Partly Cloudy
7:00 PM 92 °F - 53 °F 18% 29.93 in - West 11.5 mph - -  
7:00 PM 91.4 °F - 48.2 °F 23% 29.92 in 6.2 mi West 10.4 mph - N/A   Partly Cloudy
7:30 PM 89.6 °F - 50.0 °F 26% 29.92 in 6.2 mi West 11.5 mph - N/A   Partly Cloudy
8:00 PM 88 °F - 55 °F 23% 29.92 in 37 mi West 10.4 mph - -   Scattered Clouds
8:00 PM 87.8 °F - 51.8 °F 29% 29.92 in 6.2 mi West 9.2 mph - N/A   Partly Cloudy
8:30 PM 84.2 °F 82.8 °F 53.6 °F 35% 29.92 in 6.2 mi WNW 8.1 mph - N/A   Partly Cloudy
9:00 PM 81 °F - 58 °F 35% 29.93 in - WSW 4.6 mph - -  
9:00 PM 82.4 °F 81.7 °F 55.4 °F 39% 29.92 in - West 5.8 mph - N/A   Clear
9:30 PM 78.8 °F - 57.2 °F 47% 29.92 in - West 3.5 mph - N/A   Clear
10:00 PM 77 °F - 60 °F 47% 29.94 in - West 5.8 mph - -  
10:00 PM 78.8 °F - 60.8 °F 54% 29.92 in - West 5.8 mph - N/A   Clear
10:30 PM 77.0 °F - 59.0 °F 54% 29.95 in - West 3.5 mph - N/A   Clear
11:00 PM 75 °F - 59 °F 49% 29.96 in 25 mi Calm Calm - -  
11:00 PM 75.2 °F - 59.0 °F 57% 29.95 in - Calm Calm - N/A   Clear